SCP
0 0 0 0 0 0 0 0 0 0 0 0 0 0 0 0 0 0 0 0 0 0 0 0 0 0 0 0 0 0 0 0 0 0 0 0 0 0 0 0 0 0 0
0 0 0 0 0 0 0 0 0 0 0 0 0 0 0 0 0 0 0 0 0 0 0 0 0 0 0 0 0 0 0 0 0 0 0 0 0 0 0 0 0 0 0
0 0 0 0 0 0 0 0 0 0 0 0 0 0 0 0 0 0 0 0 0 0 0 0 0 0 0 0 0 0 0 0 0 0 0 0 0 0 0 0 0 0 0
0 0 0 0 0 0 0 0 0 0 0 0 0 0 0 0 0 0 0 0 0 0 0 0 0 0 0 0 0 0 0 0 0 0 0 0 0 0 0 0 0 0 0
0 0 0 0 0 0 0 0 0 0 0 0 0 0 0 0 0 0 0 0 0 0 0 0 0 0 0 0 0 0 0 0 0 0 0 0 0 0 0 0 0 0 0
0 0 0 0 0 0 0 0 0 0 0 0 0 0 0 0 0 0 0 0 0 0 0 0 0 0 0 0 0 0 0 0 0 0 0 0 0 0 0 0 0 0 0
0 0 0 0 0 0 0 0 0 0 0 0 0 0 0 0 0 0 0 0 0 0 0 0 0 0 0 0 0 0 0 0 0 0 0 0 0 0 0 0 0 0 0
0 0 0 0 0 0 0 0 0 0 0 0 0 0 0 0 0 0 0 0 0 0 0 0 0 0 0 0 0 0 0 0 0 0 0 0 0 0 0 0 0 0 0
0 0 0 0 0 0 0 0 0 0 0 0 0 0 0 0 0 0 0 0 0 0 0 0 0 0 0 0 0 0 0 0 0 0 0 0 0 0 0 0 0 0 0
0 0 0 0 0 0 0 0 0 0 0 0 0 0 0 0 0 0 0 0 0 0 0 0 0 0 0 0 0 0 0 0 0 0 0 0 0 0 0 0 0 0 0
0 0 0 0 0 0 0 0 0 0 0 0 0 0 0 0 0 0 0 0 0 0 0 0 0 0 0 0 0 0 0 0 0 0 0 0 0 0 0 0 0 0 0
0 0 0 0 0 0 0 0 0 0 0 0 0 0 0 0 0 0 0 0 0 0 0 0 0 0 0 0 0 0 0 0 0 0 0 0 0 0 0 0 0 0 0
0 0 0 0 0 0 0 0 0 0 0 0 0 0 0 0 0 0 0 0 0 0 0 0 0 0 0 0 0 0 0 0 0 0 0 0 0 0 0 0 0 0 0
0 0 0 0 0 0 0 0 0 0 0 0 0 0 0 0 0 0 0 0 0 0 0 0 0 0 0 0 0 0 0 0 0 0 0 0 0 0 0 0 0 0 0
0 0 0 0 0 0 0 0 0 0 0 0 0 0 0 0 0 0 0 0 0 0 0 0 0 0 0 0 0 0 0 0 0 0 0 0 0 0 0 0 0 0 0
0 0 0 0 0 0 0 0 0 0 0 0 0 0 0 0 0 0 0 0 0 0 0 0 0 0 0 0 0 0 0 0 0 0 0 0 0 0 0 0 0 0 0
0 0 0 0 0 0 0 0 0 0 0 0 0 0 0 0 0 0 0 0 0 0 0 0 0 0 0 0 0 0 0 0 0 0 0 0 0 0 0 0 0 0 0
0 0 0 0 0 0 0 0 0 0 0 0 0 0 0 0 0 0 0 0 0 0 0 0 0 0 0 0 0 0 0 0 0 0 0 0 0 0 0 0 0 0 0
0 0 0 0 0 0 0 0 0 0 0 0 0 0 0 0 0 0 0 0 0 0 0 0 0 0 0 0 0 0 0 0 0 0 0 0 0 0 0 0 0 0 0
0 0 0 0 0 0 0 0 0 0 0 0 0 0 0 0 0 0 0 0 0 0 0 0 0 0 0 0 0 0 0 0 0 0 0 0 0 0 0 0 0 0 0
0 0 0 0 0 0 0 0 0 0 0 0 0 0 0 0 0 0 0 0 0 0 0 0 0 0 0 0 0 0 0 0 0 0 0 0 0 0 0 0 0 0 0
0 0 0 0 0 0 0 0 0 0 0 0 0 0 0 0 0 0 0 0 0 0 0 0 0 0 0 0 0 0 0 0 0 0 0 0 0 0 0 0 0 0 0
0 0 0 0 0 0 0 0 0 0 0 0 0 0 0 0 0 0 0 0 0 0 0 0 0 0 0 0 0 0 0 0 0 -0 0 0 0 0 0 0 0 0 0
0 0 0 0 0 0 0 0 0 0 0 0 0 0 0 0 0 0 0 0 0 0 0 0 0 0 0 0 0 0 0 0 0 -0 -0 0 0 0 0 0 0 0 0
0 0 0 0 0 0 0 0 0 0 0 0 0 0 0 0 0 0 0 0 0 0 0 0 0 0 0 0 0 0 0 0 0 0 -0 0 0 0 0 0 0 0 0
0 0 0 0 0 0 0 0 0 0 0 0 0 0 0 0 0 0 0 0 0 0 0 0 0 0 0 0 0 0 0 0 0 0 -0 -0 0 0 0 0 0 0 0
Wind_Speed
2 3 5 7 7 7 7 7 7 7 8 8 8 8 8 8 8 7 7 8 7 8 8 9 9 9 10 10 11 11 11 11 11 11 11 10 11 12 13 12 11 8 14
3 3 5 7 7 7 7 7 6 6 7 7 7 7 7 7 7 7 7 7 7 7 8 9 9 9 10 10 11 11 11 11 11 10 9 8 9 11 12 11 11 8 13
4 4 5 7 7 7 7 7 6 6 6 6 6 6 6 6 6 6 6 6 6 7 8 8 9 9 9 10 10 10 10 11 11 10 8 5 5 10 11 10 11 12 13
5 4 4 7 7 7 6 6 6 5 5 5 5 5 5 5 5 5 5 6 6 7 8 8 8 8 9 9 9 9 10 10 10 8 5 4 3 8 10 10 10 11 12
4 3 4 7 7 7 6 6 6 5 5 5 5 5 5 5 5 5 5 6 6 6 7 7 8 8 8 8 8 9 9 9 9 7 4 3 3 7 9 10 10 11 12
4 3 3 6 6 6 6 6 5 5 5 4 4 4 4 4 4 5 5 6 6 6 6 7 7 7 8 8 8 9 9 9 7 4 4 3 3 7 9 10 10 11 11
3 2 3 5 6 6 6 5 5 5 4 4 4 4 4 4 4 5 6 6 6 6 6 7 7 7 7 8 8 8 9 8 5 4 3 3 3 7 9 10 11 11 11
4 3 2 5 5 5 5 5 5 4 4 4 4 4 4 4 4 4 5 5 5 6 6 7 7 7 7 8 8 8 8 7 5 4 3 2 4 7 9 9 10 10 11
3 3 2 2 3 4 5 5 5 4 4 4 3 3 3 3 3 3 4 4 5 5 6 6 7 7 7 7 8 8 7 7 4 3 2 2 4 6 8 8 9 10 10
2 2 2 2 2 2 3 4 4 4 4 4 4 4 4 4 3 3 2 4 4 5 5 6 6 6 7 7 7 7 6 5 3 3 1 2 4 5 7 8 8 9 9
2 1 1 2 2 2 2 3 3 4 4 4 4 4 4 2 2 2 2 3 4 4 5 5 6 6 6 5 6 6 5 2 2 2 1 2 4 5 6 7 8 8 9
2 1 1 2 2 2 2 2 1 2 2 2 2 2 2 2 2 2 3 4 4 4 4 5 5 5 4 2 3 4 2 2 2 1 1 3 4 5 6 7 8 8 8
3 2 2 2 2 2 2 2 1 1 1 2 2 2 2 2 1 2 2 2 2 3 2 3 3 2 2 2 2 2 2 2 1 1 1 2 4 5 7 7 7 7 7
3 3 2 2 2 2 2 2 1 1 1 1 1 2 2 1 1 1 1 1 1 1 2 2 2 2 2 2 2 2 2 1 1 1 1 2 3 5 6 7 7 7 7
3 3 3 3 3 3 2 2 2 1 1 1 1 1 2 2 1 1 1 1 1 1 1 2 2 3 3 2 2 2 2 2 1 1 1 3 3 4 5 7 7 7 7
3 3 3 3 3 3 3 2 2 2 2 1 1 1 2 2 2 2 1 1 1 1 1 2 2 2 2 2 3 2 2 2 2 2 1 2 3 3 4 5 6 7 7
3 3 3 3 3 3 3 3 2 2 2 2 1 2 2 2 3 2 2 1 1 1 2 2 3 2 2 3 3 2 2 2 2 2 2 1 1 2 2 4 4 5 6
2 2 2 2 3 3 2 2 2 2 2 1 1 1 2 2 3 3 2 1 1 1 2 3 3 2 2 2 2 2 2 2 2 2 2 2 1 1 1 3 3 4 5
3 3 2 2 3 3 2 2 2 2 2 1 1 1 1 2 2 3 2 1 1 2 2 2 2 2 3 2 2 2 2 1 1 2 2 1 1 1 1 2 3 2 3
1 2 2 2 2 2 2 2 2 2 1 1 1 1 2 2 3 3 2 2 2 2 2 2 2 2 2 3 2 2 2 1 1 1 1 1 1 1 2 2 2 1 2
1 1 1 2 2 3 2 2 2 1 1 1 1 1 2 2 2 3 2 2 2 2 2 3 2 3 2 2 2 2 2 2 2 1 1 1 1 1 2 2 1 1 0
1 1 1 2 2 3 3 2 2 2 1 1 1 1 1 2 2 2 2 2 2 2 3 3 3 2 1 1 2 2 1 1 2 1 1 1 0 1 1 1 1 1 1
1 1 2 2 2 2 2 2 2 2 2 1 1 1 0 1 2 2 2 2 2 2 3 3 3 3 2 1 1 2 2 2 0 1 1 1 0 0 0 0 0 1 0
2 1 1 2 2 2 3 4 4 3 2 2 1 1 1 1 1 1 2 2 2 2 3 3 3 3 4 2 1 0 1 2 2 0 1 1 1 0 1 0 0 1 0
1 1 1 1 2 2 3 4 4 2 2 1 2 2 1 1 1 1 2 2 2 1 2 3 2 2 2 3 2 1 1 1 1 2 1 1 1 1 1 1 1 1 1
2 1 1 2 2 2 3 3 3 3 3 2 2 2 1 1 1 1 1 1 1 1 2 2 3 3 2 2 2 2 2 2 2 2 2 2 2 2 1 1 2 2 1
Wind_Direction
199 188 169 145 134 127 123 116 112 108 105 102 103 102 103 102 101 103 104 101 99 99 101 101 97 96 97 100 99 97 96 93 91 88 86 90 95 97 97 93 90 86 92
168 167 156 144 138 131 124 118 113 111 111 108 107 106 106 106 107 110 110 108 105 103 102 103 100 95 94 97 99 99 98 96 91 83 79 80 91 99 100 97 97 99 98
141 148 148 140 138 131 125 122 119 116 115 113 113 111 111 113 112 112 113 110 112 109 104 104 103 100 97 96 98 100 99 98 92 82 75 70 88 101 104 102 102 103 101
137 134 138 135 135 134 128 127 126 123 122 119 118 118 118 118 118 115 116 113 111 112 107 105 106 104 101 100 100 101 101 98 92 83 70 64 81 103 107 107 106 106 104
124 125 139 134 133 134 133 130 130 128 126 119 121 123 125 125 121 122 120 114 109 110 109 106 109 107 104 102 104 105 105 101 92 83 73 66 73 105 107 108 109 108 108
122 122 134 136 134 131 132 133 135 137 132 123 125 129 127 126 125 123 124 116 113 113 112 111 112 108 105 104 106 105 105 101 89 84 80 75 78 104 107 107 110 110 109
126 120 130 133 133 128 125 125 127 133 138 132 130 131 131 128 124 123 124 122 123 122 119 118 119 115 111 110 109 104 101 98 91 89 85 80 96 110 109 107 108 109 109
132 124 125 127 121 123 123 122 118 118 120 125 133 134 128 128 128 126 131 134 131 130 125 122 120 121 120 117 114 106 100 97 98 93 88 88 105 114 112 109 110 110 111
121 118 109 113 115 114 116 121 120 114 110 108 107 104 99 102 114 127 134 137 139 137 130 124 120 119 119 117 113 106 100 94 97 97 100 98 109 120 120 120 118 117 114
108 114 114 108 108 115 118 118 121 108 99 94 85 77 77 76 77 82 113 125 128 132 128 123 121 120 118 116 112 107 100 93 95 95 94 118 123 129 127 127 127 125 122
128 122 131 131 123 124 129 117 114 105 97 90 81 78 77 72 71 67 85 114 120 119 119 122 119 117 110 109 108 105 98 95 104 96 114 129 138 142 137 131 129 128 125
183 186 168 159 154 140 123 107 102 98 97 89 86 80 81 82 69 73 79 91 98 97 99 111 109 105 97 95 97 95 93 102 101 104 130 145 152 149 142 133 130 131 128
192 185 189 178 159 148 138 129 116 101 95 93 95 90 87 84 76 70 76 75 76 75 75 86 87 84 89 98 100 99 104 101 92 86 117 147 158 152 145 140 136 136 136
184 192 192 183 165 159 147 143 141 132 128 125 124 125 114 100 98 104 91 95 98 94 104 102 104 95 93 99 109 111 109 102 87 80 105 121 142 148 149 149 145 142 138
197 202 195 187 177 169 154 156 148 156 154 160 153 146 137 130 135 128 114 103 110 113 121 118 119 116 106 95 94 106 109 103 93 78 78 96 117 131 142 149 150 147 144
209 213 204 193 183 167 163 166 169 167 162 159 165 163 149 147 148 143 129 114 117 124 122 120 120 116 109 103 90 84 89 93 85 72 73 83 97 109 136 145 153 152 149
212 210 201 194 179 170 169 170 163 162 158 161 167 159 147 141 149 145 137 126 128 123 122 113 106 101 101 96 89 78 69 73 84 70 72 68 75 95 117 138 143 150 156
192 192 201 185 170 180 175 167 159 151 144 151 153 154 153 147 148 142 139 129 128 121 122 128 124 110 98 95 88 76 63 59 69 65 66 71 68 64 81 104 119 138 147
188 185 189 170 169 181 181 161 144 133 125 124 128 139 147 142 146 140 140 140 129 120 122 136 122 124 122 107 95 74 59 68 67 68 64 69 74 80 80 73 81 119 144
166 166 174 165 169 166 161 132 117 106 106 101 108 119 125 135 135 130 129 125 129 130 124 127 127 114 122 125 99 67 45 52 66 84 69 56 67 74 80 74 72 77 134
108 117 160 169 174 159 159 157 154 159 149 121 112 104 123 128 127 129 130 133 142 143 144 139 124 119 118 131 102 69 39 45 58 48 49 57 58 61 75 72 84 80 69
163 165 170 180 176 174 171 167 160 157 160 159 139 102 110 136 135 133 139 156 159 140 138 144 136 134 134 128 122 122 83 15 14 3 43 86 70 72 72 61 87 88 70
179 191 188 190 179 168 154 133 115 96 79 82 94 101 103 128 135 136 152 156 161 159 168 169 163 153 156 166 124 148 155 198 283 347 13 29 16 86 99 48 81 106 100
211 197 174 172 163 157 145 142 145 146 153 173 167 154 101 111 118 122 137 150 163 172 176 181 177 168 159 167 136 52 139 154 159 210 333 339 309 248 212 277 305 294 272
169 140 136 133 141 146 146 152 150 141 147 137 133 126 113 101 110 116 133 149 160 175 181 179 176 173 168 173 166 153 102 78 134 155 223 280 309 287 248 232 234 252 248
68 74 89 121 127 134 140 146 150 148 139 127 125 144 149 144 129 106 122 138 159 170 180 186 184 178 178 174 174 168 167 165 175 166 187 230 257 283 283 250 236 233 231